Hauptseite
METAR-TAF:

METAR-TAF

Flughäfen :

Glücksburg, Deutschland

Meierwik

Breite: 54-50N, Länge: 009-30E, Höhe: 27 m

Beobachtung

Neuester Wetterbericht von vor 40 Minuten, um 23:20 UTC
Wind 8 kt aus West/Nordwest
Temperatur 4°C
Luftfeuchtigkeit 93%
Luftdruck 1033 hPa
Sichtweite 10 km oder mehr
Durchbrochene Bewölkung in der Höhe von 19000 ft

METAR: ETGG 242320Z 29008KT 9999 BKN190 04/03 Q1033 BLU

Zeit: 01:00 (00:00 UTC)


TAF: fehlend

Wetterbeobachtungen und Prognosen von mehr als 4000 Flughäfen (METAR und TAF Bericht).

Die verfügbaren Stationen werden durch gelbe und rote Markierungen auf der Karte dargestellt.

Führen Sie die Maus auf sie, um den Namen der Station zu sehen.

Darauf klicken, um die Beobachtung von Wetterbeobachtungen und Prognosen zu sehen.

Um die Karte zu ändern : klicken Sie auf den grünen Tasten mit einem schwarzen Kreuz Zum Vergrößern, auf den grünen Button mit einem Gedankenstrich zu verkleinern, oder auf die grünen Pfeile für benachbarte Karten.


METAR-TAF: